Flag for U.S.A. Weather past 2 weeks in Vista, California, U.S.A.

Now
60 °F

Clear.


Feels Like: 60 °F
Forecast: 46 / 60 °F
Wind: 3 mph from Southeast

Location: McClellan-Palomar Airport

Current Time: Dec 24, 2014 at 10:07:15 PM

Latest Report: Dec 24, 2014 at 8:53 PM


Visibility: 10 mi

Pressure: 29.87 "Hg

Humidity: 47%

Dew point: 40 °F

Location of VistaLocation

Historic Weather in Vista — Graph

°F

Vista temperature yesterday

Maximum temperature yesterday: 76 °F (at 10:53 AM)
Minimum temperature yesterday: 52 °F (at 2:53 AM)
Average temperature yesterday: 64 °F

Past Weeks' High & Low Weather Summary

 TemperatureHumidityPressure
High76 °F (Dec 23, 10:53 AM)93% (Dec 12, 6:53 AM)30.23 "Hg (Dec 12, 6:53 AM)
Low47 °F (Dec 14, 5:53 AM)21% (Dec 24, 12:53 PM)29.86 "Hg (Dec 24, 7:53 PM)
Average58 °F74%30.04 "Hg
* Reported Dec 9 8:53 PM — Dec 24 8:53 PM, Vista, Weather by CustomWeather, © 2014

Note: Actual official high and low records may vary slightly from our data, if they occured in-between our weather recording intervals... More about our weather records

Advertising

Vista weather history for previous 24 hours

 ConditionsComfort  
Time TempWeatherWind HumidityBarometerVisibility
8:53 PM
Dec 24
60 °FClear.3 mph47%29.87 "Hg10 mi
7:53 PM61 °FClear.6 mph46%29.86 "Hg10 mi
6:53 PM61 °FClear.3 mph54%29.89 "Hg10 mi
5:53 PM63 °FClear.3 mph50%29.90 "Hg10 mi
4:53 PM66 °FClear.No wind42%29.92 "Hg10 mi
3:53 PM68 °FSunny.No wind39%29.94 "Hg10 mi
2:53 PM68 °FSunny.No wind33%29.94 "Hg10 mi
1:53 PM69 °FSunny.5 mph24%29.95 "Hg10 mi
12:53 PM71 °FSunny.6 mph21%29.96 "Hg10 mi
11:53 AM70 °FSunny.6 mph23%30.00 "Hg10 mi
10:53 AM69 °FSunny.5 mph23%30.04 "Hg10 mi
9:53 AM69 °FSunny.3 mph32%30.04 "Hg10 mi
8:53 AM65 °FSunny.No wind34%30.05 "Hg10 mi
7:53 AM57 °FSunny.No wind46%30.06 "Hg10 mi
6:53 AM53 °FSunny.No wind51%30.05 "Hg10 mi
5:53 AM55 °FClear.3 mph47%30.04 "Hg10 mi
4:53 AM54 °FClear.No wind51%30.05 "Hg10 mi
3:53 AM55 °FClear.No wind49%30.04 "Hg10 mi
2:53 AM55 °FClear.3 mph51%30.04 "Hg10 mi
1:53 AM55 °FClear.No wind55%30.05 "Hg10 mi
12:53 AM58 °FClear.5 mph46%30.05 "Hg10 mi
11:53 PM
Dec 23
60 °FClear.3 mph41%30.06 "Hg10 mi
10:53 PM64 °FClear.No wind34%30.07 "Hg10 mi
Weather by CustomWeather, © 2014

See weather overviewHow to use our weather pages